DW3733 Luzzi (cosenza) IT current weather conditions

sailwx.info

Wind from 263 at 2 knots gusting 6

Air temperature 35.0° C
Dewpoint 16.8° C

Last reported at 2016-Aug-30 12:53 UTC.
Time now 2016-Aug-30 13:11 UTC

Location: N 39°27' E 016°16'.
View on Google Maps.

See reports from other nearby stations

  
Tides and Currents Weather Stations Pressure Air Temp Water Temp Dewpoint Dewpoint Depression Visibility Wind Speed Wind Dir Waves Ship Positions
date/time (UTC)wind fromknots sea level pressurealtimeterstation pressurevisibilityair tempwater tempwave heightnotes
2016-Aug-30 12:53 263 2 gusting 6 35.0
2016-Aug-30 12:43 292 1 gusting 7 35.0
2016-Aug-30 12:33 076 1 gusting 5 34.4
2016-Aug-30 12:23 009 1 gusting 5 34.4
2016-Aug-30 12:13 025 1 gusting 4 33.9
2016-Aug-30 12:03 270 0 gusting 8 33.3
2016-Aug-30 11:53 090 2 gusting 6 33.3
2016-Aug-30 11:43 045 2 gusting 6 33.3
2016-Aug-30 11:33 056 2 gusting 6 33.3
2016-Aug-30 11:23 355 1 gusting 6 33.3
2016-Aug-30 11:13 090 3 gusting 6 33.3
2016-Aug-30 11:03 003 1 gusting 5 33.3
2016-Aug-30 10:53 330 1 gusting 5 32.8
2016-Aug-30 10:43 130 1 gusting 5 32.8
2016-Aug-30 10:33 315 1 gusting 4 32.8
2016-Aug-30 10:23 014 0 gusting 4 33.3
2016-Aug-30 10:13 002 0 gusting 4 32.8
2016-Aug-30 10:03 315 0 gusting 4 32.2
2016-Aug-30 09:53 026 1 gusting 5 32.2
2016-Aug-30 09:43 330 0 gusting 5 32.2
2016-Aug-30 09:33 010 0 gusting 2 31.7
2016-Aug-30 09:23 090 0 gusting 4 31.1
2016-Aug-30 09:13 358 0 gusting 2 31.1
2016-Aug-30 09:03 315 0 gusting 2 30.6
2016-Aug-30 08:53 315 0 gusting 2 30.0
2016-Aug-30 08:43 29.4
2016-Aug-30 08:33 288 0 gusting 2 29.4
2016-Aug-30 08:23 347 0 gusting 2 28.9
2016-Aug-30 08:13 28.3
2016-Aug-30 08:03 021 0 gusting 2 27.8
2016-Aug-30 07:53 045 0 gusting 2 27.8
2016-Aug-30 07:43 124 0 gusting 1 27.2
2016-Aug-30 07:33 330 26.7
2016-Aug-30 07:23 315 26.1
2016-Aug-30 07:13 315 0 gusting 2 25.6
2016-Aug-30 07:03 180 0 gusting 1 25.0
2016-Aug-30 06:53 114 0 gusting 2 23.9
2016-Aug-30 06:43 212 1 gusting 2 23.9
2016-Aug-30 06:33 005 0 gusting 2 23.3
2016-Aug-30 06:23 201 22.8
2016-Aug-30 06:13 135 0 gusting 2 22.2
2016-Aug-30 06:03 161 0 gusting 1 21.7
2016-Aug-30 05:53 174 0 gusting 1 21.1
2016-Aug-30 05:43 180 20.6
2016-Aug-30 05:33 180 19.4
2016-Aug-30 05:23 18.3
2016-Aug-30 05:13 090 0 gusting 2 17.8
2016-Aug-30 05:03 061 0 gusting 2 17.8
2016-Aug-30 04:53 082 1 gusting 2 17.2
2016-Aug-30 04:43 090 1 gusting 2 17.2
2016-Aug-30 04:33 090 0 gusting 1 17.2
2016-Aug-30 04:23 17.2
2016-Aug-30 04:13 090 0 gusting 1 17.2
2016-Aug-30 04:03 090 0 gusting 2 17.2
2016-Aug-30 03:53 090 0 gusting 2 17.8
2016-Aug-30 03:43 090 0 gusting 1 17.8
2016-Aug-30 03:33 078 0 gusting 2 17.2
2016-Aug-30 03:23 090 2 gusting 2 17.8
2016-Aug-30 03:13 090 0 gusting 2 17.8
2016-Aug-30 03:03 358 0 gusting 2 17.8
2016-Aug-30 02:53 084 0 gusting 2 17.2
2016-Aug-30 02:43 090 0 gusting 2 17.8
2016-Aug-30 02:33 090 0 gusting 1 17.8
2016-Aug-30 02:23 090 17.8
2016-Aug-30 02:03 090 0 gusting 2 18.3
2016-Aug-30 01:53 18.3
2016-Aug-30 01:43 090 0 gusting 1 18.3
2016-Aug-30 01:33 047 1 gusting 2 17.8
2016-Aug-30 01:23 102 0 gusting 2 17.8
2016-Aug-30 01:13 090 1 gusting 2 17.8
2016-Aug-30 00:53 090 0 gusting 1 18.9
2016-Aug-30 00:43 090 0 gusting 2 18.9
2016-Aug-30 00:33 090 0 gusting 2 18.9
2016-Aug-30 00:23 088 0 gusting 2 18.9
2016-Aug-30 00:13 082 0 gusting 2 18.9
2016-Aug-30 00:03 090 1 gusting 2 18.9
2016-Aug-29 23:53 090 18.9
2016-Aug-29 23:43 051 0 gusting 2 19.4
2016-Aug-29 23:33 079 0 gusting 1 20.0
2016-Aug-29 23:23 106 0 gusting 2 19.4
2016-Aug-29 23:13 074 0 gusting 2 19.4
2016-Aug-29 23:03 123 0 gusting 2 20.0
2016-Aug-29 22:53 081 0 gusting 2 20.0
2016-Aug-29 22:43 20.6
2016-Aug-29 22:33 078 0 gusting 5 20.6
2016-Aug-29 22:23 059 1 gusting 2 20.6
2016-Aug-29 22:13 090 0 gusting 4 20.6
2016-Aug-29 22:03 338 0 gusting 2 20.6
2016-Aug-29 21:53 090 1 gusting 2 20.6
2016-Aug-29 21:43 096 0 gusting 2 21.1
2016-Aug-29 21:33 045 21.1
2016-Aug-29 21:23 079 0 gusting 2 21.1
2016-Aug-29 21:13 090 1 gusting 4 21.7
2016-Aug-29 21:03 090 1 gusting 4 23.3
2016-Aug-29 20:53 270 0 gusting 2 23.3
2016-Aug-29 20:33 134 0 gusting 2 23.3
2016-Aug-29 20:23 132 0 gusting 2 23.9
2016-Aug-29 20:13 135 0 gusting 1 23.9
2016-Aug-29 20:03 090 0 gusting 2 24.4
2016-Aug-29 19:53 181 0 gusting 4 25.0
2016-Aug-29 19:43 237 1 gusting 4 25.0
2016-Aug-29 19:33 193 1 gusting 5 25.6
2016-Aug-29 19:13 225 1 gusting 6 25.6
2016-Aug-29 19:03 103 2 gusting 6 25.6
2016-Aug-29 18:43 135 2 gusting 5 25.6
2016-Aug-29 18:33 201 0 gusting 5 26.1
2016-Aug-29 18:23 142 0 gusting 5 26.1
2016-Aug-29 18:13 253 2 gusting 5 26.7
2016-Aug-29 18:03 315 0 gusting 5 26.7
2016-Aug-29 17:53 225 2 gusting 5 26.7
2016-Aug-29 17:43 240 2 gusting 5 27.2
2016-Aug-29 17:33 225 2 gusting 5 27.8
2016-Aug-29 17:23 188 2 gusting 6 27.8
2016-Aug-29 17:13 174 2 gusting 5 28.3
2016-Aug-29 17:03 194 2 gusting 6 28.9
2016-Aug-29 16:53 242 3 gusting 6 28.9
2016-Aug-29 16:43 162 2 gusting 6 29.4
2016-Aug-29 16:33 250 3 gusting 8 29.4
2016-Aug-29 16:13 158 1 gusting 5 30.6
2016-Aug-29 16:03 221 1 gusting 6 30.6
2016-Aug-29 15:33 096 2 gusting 5 31.1
2016-Aug-29 15:23 129 2 gusting 7 31.7
2016-Aug-29 15:13 019 1 gusting 6 31.7
2016-Aug-29 15:03 274 3 gusting 6 31.7
2016-Aug-29 14:53 112 1 gusting 6 31.7
2016-Aug-29 14:43 305 1 gusting 6 31.7
2016-Aug-29 14:23 128 2 gusting 6 32.2
2016-Aug-29 14:13 086 1 gusting 6 32.2
2016-Aug-29 14:03 32.2
2016-Aug-29 13:53 225 2 gusting 6 32.2
2016-Aug-29 13:43 081 2 gusting 6 32.2
2016-Aug-29 13:23 353 2 gusting 8 32.2
2016-Aug-29 13:13 32.2
2016-Aug-29 12:53 32.2
2016-Aug-29 12:43 306 1 gusting 10 32.2
2016-Aug-29 12:33 194 3 gusting 7 32.2
2016-Aug-29 12:23 279 2 gusting 8 32.2
2016-Aug-29 12:13 270 2 gusting 6 32.8
2016-Aug-29 12:03 022 1 gusting 8 32.2
2016-Aug-29 11:53 061 1 gusting 8 32.2
2016-Aug-29 11:43 290 2 gusting 6 32.2
2016-Aug-29 11:33 257 2 gusting 8 32.2
2016-Aug-29 11:23 259 2 gusting 6 32.8
2016-Aug-29 11:03 217 3 gusting 7 32.2
2016-Aug-29 10:53 141 3 gusting 8 32.8
2016-Aug-29 10:43 237 2 gusting 8 32.8
2016-Aug-29 10:33 070 2 gusting 8 32.2
2016-Aug-29 10:23 025 2 gusting 8 32.2
2016-Aug-29 10:13 308 4 gusting 8 32.2
2016-Aug-29 10:03 315 2 gusting 6 31.7
2016-Aug-29 09:53 142 2 gusting 7 31.7
2016-Aug-29 09:33 167 2 gusting 7 31.1
2016-Aug-29 09:23 242 2 gusting 7 31.1
2016-Aug-29 09:13 207 2 gusting 7 30.6
2016-Aug-29 09:03 207 3 gusting 6 30.6
2016-Aug-29 08:53 162 2 gusting 6 30.6
2016-Aug-29 08:43 181 0 gusting 7 30.0
2016-Aug-29 08:33 207 3 gusting 6 30.0
2016-Aug-29 08:23 180 2 gusting 6 29.4
2016-Aug-29 08:03 190 4 gusting 7 29.4
2016-Aug-29 07:53 212 4 gusting 6 28.9
2016-Aug-29 07:43 225 2 gusting 7 28.3
2016-Aug-29 07:33 180 3 gusting 12 28.3
2016-Aug-29 07:23 222 4 gusting 6 27.8
2016-Aug-29 07:13 209 2 gusting 7 27.2
2016-Aug-29 07:03 225 4 gusting 6 26.7
2016-Aug-29 06:53 158 3 gusting 6 26.7
2016-Aug-29 06:33 270 0 gusting 4 25.6
2016-Aug-29 06:13 209 1 gusting 4 24.4
2016-Aug-29 06:03 188 1 gusting 4 23.9
2016-Aug-29 05:53 090 2 gusting 4 23.9
2016-Aug-29 05:43 152 0 gusting 4 23.3
2016-Aug-29 05:33 163 0 gusting 2 22.8
2016-Aug-29 05:23 137 1 gusting 2 22.8
2016-Aug-29 05:13 135 1 gusting 5 22.2
2016-Aug-29 05:03 062 0 gusting 2 21.7
2016-Aug-29 04:53 016 21.1
2016-Aug-29 04:43 150 21.1
2016-Aug-29 04:33 045 0 gusting 1 21.1
2016-Aug-29 04:23 240 21.7
2016-Aug-29 04:13 135 0 gusting 2 21.7
2016-Aug-29 04:03 225 0 gusting 2 21.1
2016-Aug-29 03:53 077 20.6
2016-Aug-29 03:43 090 0 gusting 1 20.6
2016-Aug-29 03:33 20.6
2016-Aug-29 03:23 090 0 gusting 2 20.6
2016-Aug-29 03:13 090 0 gusting 2 21.1
2016-Aug-29 02:53 101 0 gusting 4 22.2
2016-Aug-29 02:33 122 0 gusting 1 21.1
2016-Aug-29 02:13 020 0 gusting 2 20.6
2016-Aug-29 02:03 090 1 gusting 2 20.0
2016-Aug-29 01:53 071 1 gusting 2 20.6
2016-Aug-29 01:43 090 20.6
2016-Aug-29 01:33 20.6
2016-Aug-29 01:23 090 0 gusting 2 20.6
2016-Aug-29 01:13 090 0 gusting 2 21.1
2016-Aug-29 01:03 090 0 gusting 1 21.7
2016-Aug-29 00:53 108 0 gusting 4 22.2
2016-Aug-29 00:43 090 0 gusting 2 22.2
2016-Aug-29 00:33 226 0 gusting 2 22.2
2016-Aug-29 00:23 142 0 gusting 2 22.2
2016-Aug-29 00:13 229 0 gusting 2 21.7
2016-Aug-29 00:03 090 1 gusting 2 21.7
2016-Aug-28 23:53 090 1 gusting 4 21.7
2016-Aug-28 23:23 056 0 gusting 2 21.7
2016-Aug-28 23:13 053 0 gusting 2 21.7
2016-Aug-28 22:53 069 21.7
2016-Aug-28 22:43 081 0 gusting 2 21.7
2016-Aug-28 22:33 079 1 gusting 2 21.7
2016-Aug-28 22:13 100 22.2
2016-Aug-28 22:03 090 1 gusting 2 22.8
2016-Aug-28 21:53 008 22.8
2016-Aug-28 21:43 090 1 gusting 2 22.8
2016-Aug-28 21:33 090 0 gusting 2 22.8
2016-Aug-28 21:23 090 22.8
2016-Aug-28 21:13 090 0 gusting 2 23.3
2016-Aug-28 21:03 090 0 gusting 2 23.3
2016-Aug-28 20:53 105 1 gusting 2 24.4
2016-Aug-28 20:43 201 1 gusting 2 25.0
2016-Aug-28 20:33 194 0 gusting 2 24.4
2016-Aug-28 20:23 115 0 gusting 2 23.3
2016-Aug-28 20:13 135 0 gusting 1 23.3
2016-Aug-28 19:53 090 0 gusting 1 23.3
2016-Aug-28 19:43 090 0 gusting 2 23.9
2016-Aug-28 19:33 089 0 gusting 2 23.9
2016-Aug-28 19:23 090 0 gusting 1 25.0
2016-Aug-28 19:13 045 0 gusting 2 25.6
2016-Aug-28 19:03 257 26.1
2016-Aug-28 18:53 180 0 gusting 1 25.6
2016-Aug-28 18:43 090 0 gusting 2 25.6
2016-Aug-28 18:33 090 0 gusting 2 26.7
2016-Aug-28 18:23 090 0 gusting 4 27.2
2016-Aug-28 18:13 250 0 gusting 2 27.2
2016-Aug-28 18:03 180 0 gusting 1 26.7
2016-Aug-28 17:53 090 0 gusting 1 27.2
2016-Aug-28 17:33 090 1 gusting 2 28.9
2016-Aug-28 17:23 066 1 gusting 4 29.4
2016-Aug-28 17:13 045 0 gusting 2 29.4
2016-Aug-28 16:53 045 0 gusting 2 29.4
2016-Aug-28 16:43 045 0 gusting 2 30.0
2016-Aug-28 16:33 011 0 gusting 2 30.0
2016-Aug-28 16:23 30.6
2016-Aug-28 16:13 018 1 gusting 5 30.6
2016-Aug-28 16:03 330 0 gusting 2 31.1
2016-Aug-28 15:43 045 2 gusting 5 31.7
2016-Aug-28 15:33 31.7
2016-Aug-28 15:23 013 2 gusting 5 31.7
2016-Aug-28 15:03 331 2 gusting 6 32.2
2016-Aug-28 14:53 329 1 gusting 5 32.8
2016-Aug-28 14:43 047 2 gusting 5 32.8
2016-Aug-28 14:23 331 3 gusting 8 32.8
2016-Aug-28 14:13 009 2 gusting 6 32.8
2016-Aug-28 14:03 045 2 gusting 6 33.3
2016-Aug-28 13:43 068 0 gusting 6 33.3
2016-Aug-28 13:33 33.3
2016-Aug-28 13:23 034 1 gusting 6 33.3
2016-Aug-28 13:13 315 1 gusting 8 33.3
2016-Aug-28 13:03 32.8